Oak Ridge, TN

9:09 AM EDT on June 25, 2017 (GMT -0400)
Oak Ridge

Weather History for KOQT - March, 2014

Change the Weather History Date:

Tuesday, March 4, 2014

  Actual Average (KTYS) Record (KTYS)
Temperature  
Mean Temperature 32 °F -  
Max Temperature 39 °F 60 °F 82 °F (1976)
Min Temperature 24 °F 38 °F 5 °F (1873)
Degree Days  
Heating Degree Days 34    
Moisture  
Dew Point 24 °F    
Average Humidity 75    
Maximum Humidity 89    
Minimum Humidity 65    
Precipitation  
Precipitation 0.00 in - - ()
Sea Level Pressure  
Sea Level Pressure 30.26 in    
Wind  
Wind Speed 4 mph (NE)    
Max Wind Speed 9 mph    
Max Gust Speed -    
Visibility 10 miles    
Events      
Averages and records for this station are not official NWS values.
T = Trace of Precipitation, MM = Missing Value Source: NWS Daily Summary

Daily Weather History Graph

Daily Weather History Graph

Search for Another Location

Airport or City:

Trip Planner

Search our weather history database for the weather conditions in past years. The results will help you decide how hot, cold, wet, or windy it might be!

Date:

Astronomy

Mar. 04, 2014 Rise Set
Actual Time 7:03 AM EST 6:34 PM EST
Civil Twilight 6:37 AM EST 7:00 PM EST
Nautical Twilight 6:07 AM EST 7:30 PM EST
Astronomical Twilight 5:38 AM EST 7:59 PM EST
Moon 8:56 AM EST (3/4) 10:32 PM EST (3/4)
Length of Visible Light 12h 22m
Length of Day
11h 31m
Waxing Crescent, 14% of the Moon is Illuminated
Mar 4
Waxing Crescent
Mar 8
First Quarter
Mar 16
Full
Mar 23
Last Quarter
Mar 30
New

Hourly Weather History & Observations

Time (EST) Temp. Windchill Dew Point Humidity Pressure Visibility Wind Dir Wind Speed Gust Speed Precip Events Conditions
12:53 AM 24.1 °F 14.4 °F 17.1 °F 75% 30.29 in 10.0 mi NE 9.2 mph - N/A   Overcast
1:53 AM 24.1 °F 17.0 °F 17.1 °F 75% 30.31 in 10.0 mi Variable 5.8 mph - N/A   Overcast
2:53 AM 24.1 °F 17.0 °F 17.1 °F 75% 30.28 in 10.0 mi Variable 5.8 mph - N/A   Overcast
3:53 AM 25.0 °F 20.7 °F 18.0 °F 75% 30.27 in 10.0 mi Variable 3.5 mph - N/A   Overcast
4:53 AM 25.0 °F 19.3 °F 18.0 °F 75% 30.28 in 10.0 mi ENE 4.6 mph - N/A   Overcast
5:53 AM 25.0 °F 20.7 °F 19.0 °F 78% 30.29 in 10.0 mi Variable 3.5 mph - N/A   Overcast
6:40 AM 25.0 °F 20.7 °F 19.0 °F 78% 30.23 in 10.0 mi ENE 3.5 mph - N/A   Overcast
6:53 AM 25.0 °F 18.1 °F 19.0 °F 78% 30.30 in 10.0 mi NE 5.8 mph - N/A   Overcast
7:53 AM 26.1 °F 20.5 °F 19.9 °F 78% 30.31 in 10.0 mi Variable 4.6 mph - N/A   Overcast
8:53 AM 27.0 °F 19.5 °F 21.0 °F 78% 30.31 in 10.0 mi ENE 6.9 mph - N/A   Overcast
9:22 AM 28.0 °F 24.2 °F 21.9 °F 78% 30.25 in 10.0 mi Variable 3.5 mph - N/A   Overcast
9:53 AM 30.0 °F 25.2 °F 23.0 °F 75% 30.31 in 10.0 mi North 4.6 mph - N/A   Overcast
10:53 AM 30.9 °F 27.5 °F 24.1 °F 76% 30.31 in 10.0 mi Variable 3.5 mph - N/A   Overcast
11:53 AM 33.1 °F 30.0 °F 25.0 °F 72% 30.30 in 10.0 mi Variable 3.5 mph - N/A   Overcast
12:22 PM 35.1 °F 31.0 °F 26.1 °F 70% 30.24 in 10.0 mi Variable 4.6 mph - N/A   Overcast
12:53 PM 36.0 °F 32.1 °F 26.1 °F 67% 30.28 in 10.0 mi Variable 4.6 mph - N/A   Overcast
1:53 PM 37.9 °F - 28.0 °F 68% 30.23 in 10.0 mi Calm Calm - N/A   Overcast
2:53 PM 39.0 °F - 28.0 °F 65% 30.22 in 10.0 mi Calm Calm - N/A   Overcast
3:53 PM 39.9 °F - 28.9 °F 65% 30.20 in 10.0 mi Calm Calm - N/A   Mostly Cloudy
4:53 PM 39.9 °F - 30.0 °F 68% 30.21 in 10.0 mi Calm Calm - N/A   Overcast
5:53 PM 39.9 °F - 30.0 °F 68% 30.23 in 10.0 mi Calm Calm - N/A   Overcast
6:53 PM 37.9 °F 35.5 °F 30.0 °F 73% 30.23 in 10.0 mi NE 3.5 mph - N/A   Partly Cloudy
7:53 PM 37.0 °F - 30.0 °F 76% 30.24 in 10.0 mi Calm Calm - N/A   Clear
8:53 PM 36.0 °F - 30.0 °F 79% 30.23 in 10.0 mi Calm Calm - N/A   Clear
9:53 PM 34.0 °F - 30.0 °F 85% 30.22 in 10.0 mi Calm Calm - N/A   Clear
10:53 PM 33.1 °F - 30.0 °F 89% 30.23 in 10.0 mi Calm Calm - N/A   Clear
11:53 PM 33.1 °F - 30.0 °F 89% 30.22 in 9.0 mi Calm Calm - N/A   Clear